Flag for United Kingdom Weather past 2 weeks in Portsmouth, England, United Kingdom

Now
52 °F

Clear.


Feels Like: 52 °F
Forecast: 50 / 66 °F
Wind: 1 mph from Southwest

Location: Southampton / Weather Centre

Current Time: Jul 31, 2015 at 11:34:02 PM

Latest Report: Jul 31, 2015 at 10:20 PM


Visibility: 10 mi

Pressure: 30.01 "Hg

Humidity: 72%

Dew point: 43 °F

Location of PortsmouthLocation

Historic Weather in Portsmouth — Graph

°F

Portsmouth temperature yesterday

Maximum temperature yesterday: 66 °F (at 3:50 PM)
Minimum temperature yesterday: 43 °F (at 5:50 AM)
Average temperature yesterday: 58 °F

Past Weeks' High & Low Weather Summary

 TemperatureHumidityPressure
High72 °F (Jul 19, 3:20 PM)94% (Jul 20, 6:20 AM)30.12 "Hg (Jul 20, 6:20 AM)
Low41 °F (Jul 31, 5:50 AM)37% (Jul 30, 7:20 PM)29.45 "Hg (Jul 26, 7:50 PM)
Average61 °F68%29.89 "Hg
* Reported Jul 16 10:20 PM — Jul 31 10:20 PM, Portsmouth, Weather by CustomWeather, © 2015

Note: Actual official high and low records may vary slightly from our data, if they occured in-between our weather recording intervals... More about our weather records

Advertising

Portsmouth weather history for previous 24 hours

 ConditionsComfort  
Time TempWeatherWind HumidityBarometerVisibility
10:20 PM
Fri, Jul 31
52 °FClear.1 mph72%30.01 "Hg10 mi
9:50 PM57 °FSunny.No wind59%30.01 "Hg10 mi
9:20 PM57 °FSunny.No wind59%30.01 "Hg10 mi
8:50 PM59 °FSunny.2 mph55%30.01 "Hg10 mi
8:20 PM61 °FSunny.1 mph48%30.01 "Hg10 mi
7:50 PM63 °FSunny.1 mph45%30.01 "Hg10 mi
7:20 PM64 °FSunny.3 mph43%30.01 "Hg10 mi
6:50 PM64 °FPassing clouds.3 mph46%30.01 "HgN/A
6:20 PM64 °FPassing clouds.3 mph46%30.01 "HgN/A
5:50 PM66 °FPassing clouds.5 mph43%30.01 "HgN/A
5:20 PM66 °FPassing clouds.3 mph46%30.01 "HgN/A
4:50 PM66 °FPassing clouds.5 mph43%30.04 "HgN/A
4:20 PM66 °FPassing clouds.6 mph43%30.04 "HgN/A
3:50 PM66 °FPassing clouds.3 mph43%30.04 "HgN/A
3:20 PM64 °FPassing clouds.5 mph49%30.04 "HgN/A
2:50 PM66 °FPassing clouds.3 mph49%30.07 "HgN/A
2:20 PM64 °FPassing clouds.3 mph49%30.07 "HgN/A
1:50 PM64 °FPassing clouds.5 mph49%30.07 "HgN/A
1:20 PM66 °FSunny.6 mph46%30.07 "Hg10 mi
12:50 PM66 °FPassing clouds.5 mph40%30.07 "HgN/A
12:20 PM66 °FScattered clouds.5 mph43%30.07 "HgN/A
11:50 AM66 °FScattered clouds.5 mph43%30.07 "HgN/A
11:20 AM66 °FScattered clouds.2 mph43%30.09 "HgN/A
10:50 AM64 °FPassing clouds.3 mph49%30.09 "HgN/A
10:20 AM63 °FPassing clouds.3 mph52%30.09 "HgN/A
9:50 AM63 °FPassing clouds.3 mph59%30.09 "HgN/A
9:20 AM61 °FSunny.No wind68%30.09 "Hg10 mi
8:20 AM55 °FSunny.No wind72%30.09 "Hg10 mi
7:50 AM50 °FSunny.No wind82%30.12 "Hg10 mi
7:20 AM48 °FSunny.No wind82%30.12 "Hg10 mi
6:50 AM45 °FSunny.No wind93%30.12 "Hg10 mi
6:20 AM43 °FClear.No wind87%30.12 "Hg10 mi
5:50 AM41 °FClear.No wind93%30.12 "Hg10 mi
Weather by CustomWeather, © 2015

See weather overviewHow to use our weather pages